Location: Maccacari
(45.1333°N, 11.1333°E)
Time: 23:17:01
(UTC+00:00)

A-11 Canister half - Pass Details

Date: 29 January 2021
Orbit: 1525 x 1684 km, 47.3° (Epoch: 07 March)

Event Time Altitude Azimuth Distance (km) Brightness Sun altitude
Rises 14:42:55 0° 265° (W) 4,677 12.4 13.2°
Reaches altitude 10° 14:45:57 10° 266° (W) 3,702 12.0 12.8°
Maximum altitude 14:55:20 80° 354° (N) 1,582 9.3 11.6°
Drops below altitude 10° 15:05:01 10° 82° (E) 3,808 10.6 10.2°
Sets 15:08:10 0° 84° (E) 4,815 11.1 9.8°
